Theta_e
307 306 305 304 303 303 303 303 302 301 301 301 301 301 301 302 302 302 301 301 298 295 297 300 303 305 306 306 306 305 305 305 304 303 308 313 315 314 314 316 319 319 320 320 321 320 320
306 305 304 303 303 303 303 303 302 301 301 301 301 301 301 301 301 300 299 293 293 293 295 296 301 306 308 306 305 304 304 304 304 305 305 310 312 315 314 315 318 320 320 321 321 321 320
305 304 304 303 302 303 302 301 301 301 301 300 300 300 300 300 299 295 293 293 292 294 295 297 302 307 308 307 304 304 304 304 304 304 307 311 311 313 315 316 316 317 320 321 321 321 321
305 304 304 302 302 301 300 300 299 300 300 300 300 299 299 298 294 294 293 293 294 295 296 301 306 308 309 305 304 305 305 305 305 305 305 307 312 313 313 315 316 316 318 321 321 320 320
303 302 302 302 301 300 299 299 300 299 299 300 299 299 299 296 295 295 294 295 298 298 301 305 307 308 310 305 306 306 308 308 309 309 306 305 307 312 314 315 317 317 319 319 319 320 320
302 302 302 301 300 299 299 299 299 298 300 299 298 299 298 298 295 294 296 299 299 299 304 304 306 308 308 307 304 306 307 308 311 312 311 306 306 307 311 317 319 319 319 320 321 321 322
302 302 301 300 299 299 299 299 300 299 298 298 298 298 298 297 295 295 299 301 302 304 303 301 302 305 303 301 301 302 301 302 306 311 312 308 306 307 310 315 316 317 318 321 321 321 322
302 301 300 300 299 298 298 298 298 298 298 298 298 298 298 296 294 297 299 302 299 298 300 301 301 301 301 301 303 306 306 304 303 305 312 309 306 307 310 313 315 317 319 322 321 319 320
301 301 300 299 298 298 298 298 298 298 297 297 297 297 298 293 297 299 299 298 298 299 301 300 301 303 307 308 308 308 307 305 303 306 308 311 307 307 309 311 313 317 319 318 318 316 318
299 299 298 298 297 298 297 297 297 297 296 296 297 298 297 294 299 299 299 298 298 299 301 302 303 307 308 307 309 306 308 305 304 306 311 312 308 309 309 311 312 314 315 315 314 317 321
298 297 297 297 297 297 296 297 297 296 296 297 297 297 294 297 299 300 299 298 298 300 303 301 305 307 306 303 304 306 308 307 304 306 309 313 308 310 310 311 312 313 313 314 315 316 316
297 297 297 297 298 297 296 297 295 295 295 296 297 295 294 298 299 299 299 300 301 305 303 299 302 301 301 302 307 309 310 309 306 305 309 311 311 311 310 310 311 312 311 312 312 312 315
297 298 297 296 296 296 296 296 295 294 295 296 296 294 297 298 301 299 300 302 303 300 298 297 299 300 300 308 307 311 311 311 306 305 310 315 317 312 310 311 311 311 312 315 316 317 318
297 297 297 295 295 296 296 295 294 294 294 295 295 297 298 299 299 300 301 304 301 299 298 299 299 300 304 307 308 310 311 309 307 309 314 318 319 312 313 312 312 312 312 321 321 323 320
296 296 295 295 295 296 294 294 294 293 295 295 297 299 299 300 300 300 303 302 299 299 299 299 299 301 306 305 306 310 313 309 307 309 316 318 312 313 313 312 311 313 315 316 321 319 320
296 296 295 295 295 296 296 294 294 294 295 295 299 299 300 300 300 301 305 301 301 300 300 300 301 304 305 304 308 310 308 308 308 310 311 312 315 311 313 315 313 314 314 318 319 319 316
297 296 295 294 295 294 295 294 293 294 295 295 301 302 299 300 301 303 305 302 302 300 300 300 300 300 303 306 306 310 316 308 310 309 310 310 314 311 313 315 315 316 317 316 316 317 323
295 295 293 294 294 294 296 294 292 293 295 298 301 304 299 301 306 303 304 301 301 301 301 301 300 304 304 306 307 311 317 316 313 313 309 311 313 314 313 313 315 314 317 315 319 319 318
296 295 293 294 294 294 295 294 292 294 295 300 303 301 299 301 304 303 302 303 302 303 304 305 305 304 304 308 311 311 310 312 312 314 314 315 315 315 316 315 317 317 318 316 318 319 321
294 295 293 294 296 292 295 293 293 294 295 298 302 304 302 301 301 302 302 303 303 303 304 305 308 307 309 309 307 311 310 311 311 312 314 315 316 313 316 316 315 319 316 316 317 318 318
294 295 294 293 295 292 293 293 293 293 295 298 302 302 300 304 303 301 301 302 302 303 303 304 306 306 307 309 307 307 308 310 310 311 311 314 319 318 316 314 315 316 317 317 318 315 316
294 296 294 292 294 293 293 292 292 294 295 299 300 302 300 301 300 301 301 302 301 301 303 304 305 306 307 307 306 307 306 308 311 310 310 311 312 312 312 313 312 311 310 309 310 311 312
295 295 294 292 294 293 292 293 293 293 296 298 298 298 299 300 300 300 301 299 299 301 302 303 304 305 306 305 305 306 307 308 309 309 310 309 310 311 311 308 308 311 309 309 311 312 313
295 295 293 292 293 293 293 294 293 292 295 298 297 298 298 302 300 299 298 298 299 299 302 303 304 304 304 304 307 307 309 308 308 309 309 309 307 309 309 308 310 310 311 310 313 313 312
293 294 294 293 293 293 293 294 294 293 294 298 298 298 299 300 300 299 298 299 300 301 302 302 302 302 304 307 308 307 308 309 307 308 308 309 309 308 308 310 310 311 311 311 312 313 310
292 293 292 294 293 293 293 294 294 294 295 297 297 297 299 301 301 298 300 300 300 300 301 302 302 303 305 307 308 307 308 308 307 307 308 308 309 310 309 307 311 314 310 310 311 315 309
293 293 293 293 293 293 294 294 292 292 294 296 297 296 298 300 300 299 300 300 300 299 300 301 302 304 305 308 309 308 309 306 309 308 308 309 310 311 309 309 313 306 307 309 313 311 306
293 293 293 293 292 293 293 294 293 292 294 296 297 296 297 299 300 299 300 300 300 300 301 301 303 304 304 307 306 306 308 307 309 308 309 311 312 312 312 310 313 301 308 309 303 302 302
293 293 293 293 292 293 293 293 293 293 294 294 297 295 295 297 299 298 299 299 299 299 301 300 301 302 302 304 304 304 307 307 307 313 307 311 309 309 308 307 301 299 299 297 298 298 299
Wind_Speed
14 12 10 7 5 4 3 4 4 6 8 10 12 14 16 16 18 20 23 25 27 28 28 27 24 18 12 11 21 22 22 22 22 20 21 18 18 21 30 27 27 32 28 26 25 24 25
15 13 10 8 6 4 3 3 5 7 9 11 13 14 16 17 19 22 26 30 30 30 28 28 22 12 13 22 14 11 13 12 14 15 21 24 19 18 23 27 29 25 30 27 26 24 22
15 13 11 8 6 5 3 1 4 6 8 10 11 14 16 19 23 27 30 32 32 29 30 25 18 11 16 27 19 20 21 23 22 23 20 23 26 23 17 25 26 28 26 22 23 28 29
16 13 13 10 7 5 2 2 4 5 7 9 11 15 18 22 25 28 32 31 30 31 23 18 12 14 12 16 18 21 23 27 28 28 26 23 17 22 25 17 22 20 26 25 26 22 22
15 13 12 11 9 5 1 1 2 4 6 8 12 16 20 23 26 30 29 29 27 17 13 10 10 12 16 9 12 13 10 15 20 22 29 28 17 19 18 22 19 24 22 30 26 26 25
15 14 14 12 9 6 3 1 2 4 6 10 13 16 20 23 26 27 28 31 26 13 8 14 14 8 18 11 9 8 13 14 12 15 18 24 15 19 20 19 22 26 25 24 24 25 25
18 17 15 11 10 6 4 2 1 3 7 10 13 16 20 22 26 20 26 27 8 5 14 14 23 24 31 35 27 26 28 29 21 22 17 23 21 25 33 31 24 21 20 17 15 19 12
19 17 15 13 9 7 5 2 1 4 7 11 13 17 19 22 23 14 20 12 10 10 17 21 31 31 37 32 26 25 23 23 25 25 22 21 27 32 27 28 27 15 6 20 24 12 14
17 18 16 12 10 7 5 4 2 4 7 10 13 15 18 23 10 12 14 12 14 16 10 22 17 7 1 10 17 20 10 20 25 24 28 25 28 27 26 25 23 18 20 21 16 17 20
18 17 14 12 10 8 5 3 2 4 6 10 13 15 17 22 10 16 9 16 15 13 6 10 10 5 4 11 11 21 23 18 23 27 25 25 28 23 27 22 21 23 23 22 20 14 16
17 16 15 12 10 8 5 3 2 4 7 10 12 14 16 9 11 11 16 17 13 1 7 15 6 5 16 19 23 18 10 13 24 25 20 20 23 20 21 19 19 17 15 20 20 17 17
18 16 15 11 10 7 4 2 2 4 7 9 12 13 15 8 7 13 17 16 8 5 6 19 20 27 24 28 26 19 23 14 19 27 24 22 16 17 18 16 16 16 13 11 13 14 14
18 17 15 12 10 7 5 3 1 4 7 9 12 14 7 6 9 18 16 13 7 7 23 19 29 26 30 15 26 14 12 15 18 23 17 11 14 19 11 15 10 11 12 6 8 9 12
17 17 16 12 8 7 5 2 1 4 7 10 12 6 3 5 12 13 13 12 15 20 21 24 22 31 15 17 16 20 10 15 22 24 14 9 12 13 13 18 16 20 21 8 6 10 12
19 15 14 11 9 9 5 2 2 4 7 10 7 0 1 7 11 10 8 8 11 17 20 22 29 19 14 19 15 13 15 15 21 24 8 13 4 13 14 13 17 17 15 9 5 6 3
18 18 14 12 9 7 4 2 2 3 5 10 6 2 2 7 9 8 5 9 15 14 19 19 17 10 19 26 18 18 10 15 20 16 7 4 4 15 13 13 16 16 17 8 4 2 4
16 17 14 11 10 6 5 2 1 3 6 6 3 4 5 8 4 4 5 10 15 14 15 12 14 19 22 17 12 12 10 10 1 16 10 4 9 11 10 11 13 10 13 7 7 5 3
18 16 12 11 10 8 6 3 1 3 5 2 2 2 4 6 3 3 6 13 11 13 12 9 10 11 11 15 9 8 6 15 12 12 11 8 3 13 18 17 7 18 14 13 4 8 1
18 15 13 10 9 9 6 3 2 2 4 4 3 3 3 5 3 5 9 9 13 14 13 9 5 5 13 7 7 11 7 14 21 12 1 1 6 11 8 7 13 11 9 9 3 1 5
17 16 10 12 12 7 7 4 3 1 2 3 1 0 2 1 4 7 11 8 14 10 6 6 6 9 10 8 18 8 11 14 17 16 15 13 7 10 8 11 12 8 10 7 7 4 4
17 18 14 12 12 8 7 7 3 2 2 4 3 2 3 2 1 6 6 5 11 10 7 11 6 18 17 8 13 14 19 17 13 21 11 10 4 9 1 15 11 9 9 7 5 2 3
19 15 16 12 13 10 10 6 4 4 4 4 3 3 3 5 5 6 1 6 9 13 8 12 15 20 16 15 14 22 18 12 6 11 7 11 5 11 13 13 13 10 6 3 4 2 2
14 19 16 13 13 11 8 7 7 6 7 2 1 2 2 5 3 3 2 8 12 12 6 10 16 17 14 20 22 20 14 10 9 6 9 5 3 2 9 6 13 10 8 5 9 12 11
17 17 14 13 12 9 11 9 6 8 11 1 2 2 2 3 3 5 7 9 11 10 11 13 12 12 15 22 19 6 5 6 6 6 3 8 5 3 4 5 6 10 10 7 14 15 16
16 15 15 13 13 13 11 10 9 8 10 6 3 2 2 3 5 2 7 8 10 6 8 11 12 14 14 15 8 2 4 4 7 9 5 6 5 3 1 7 13 7 10 9 7 12 16
15 17 16 14 14 12 12 10 12 9 8 8 4 3 3 3 2 4 7 5 8 9 7 5 12 12 12 7 6 4 5 7 5 3 6 6 5 4 0 4 4 7 16 14 11 4 16
19 16 16 15 12 12 14 13 8 10 8 8 3 8 5 3 7 3 7 8 7 8 7 7 13 7 10 7 4 4 3 6 4 5 6 5 4 6 2 2 6 11 21 18 5 5 12
24 18 17 16 14 12 13 15 10 10 10 6 2 12 5 3 9 8 8 7 8 6 7 11 7 6 6 6 5 5 4 6 4 5 6 7 6 5 3 2 4 19 7 7 6 8 10
23 20 18 17 14 14 11 13 11 10 11 7 3 5 12 5 6 12 16 19 17 14 8 4 2 5 4 4 6 3 3 2 6 1 9 2 5 3 6 3 4 8 9 7 6 7 8
Wind_Direction
168 162 156 155 143 122 113 97 63 35 21 16 2 351 344 341 336 332 328 326 325 326 323 322 317 313 312 260 257 279 264 277 273 260 249 245 237 233 238 234 243 237 240 243 251 255 258
169 162 159 154 148 133 107 67 35 27 21 3 356 347 339 337 334 331 328 330 328 325 320 314 307 296 258 268 278 266 256 250 256 266 240 244 252 242 245 241 243 242 242 245 242 250 239
169 173 167 167 165 161 143 56 34 25 7 356 350 337 338 333 339 340 334 329 322 315 309 304 294 266 265 253 282 278 271 261 266 264 258 244 244 248 249 248 239 250 259 248 245 237 248
165 155 161 171 173 176 147 17 33 13 0 352 341 336 341 343 345 337 329 324 316 307 303 293 273 249 259 280 282 274 271 266 262 254 254 255 256 252 248 261 239 238 240 246 232 233 234
169 167 169 170 178 182 165 56 15 353 351 340 343 348 346 345 341 333 329 323 316 311 294 271 246 222 268 289 254 276 246 261 261 255 238 240 234 240 235 239 236 227 235 230 242 230 223
170 165 162 161 166 164 160 122 294 349 345 344 352 346 347 342 338 337 334 324 307 287 258 250 245 251 227 264 302 263 267 269 276 266 237 218 224 224 227 217 222 219 225 242 243 221 222
169 166 165 168 158 163 175 183 347 351 341 348 346 346 346 338 333 338 338 337 5 257 327 283 278 272 284 293 290 279 271 274 264 258 223 211 217 211 215 216 229 248 257 291 261 256 224
174 175 171 167 163 167 162 139 95 351 345 344 348 348 339 332 331 346 343 19 19 304 298 278 267 259 264 270 274 270 258 258 242 242 231 233 222 221 222 218 228 235 276 259 252 242 256
176 174 169 168 170 166 158 138 61 1 344 349 352 343 333 332 333 330 340 7 338 328 283 296 271 306 325 301 274 294 272 232 238 233 238 232 218 223 228 224 224 206 215 234 260 279 303
172 170 170 170 169 160 154 122 72 354 350 357 346 336 329 339 293 338 356 338 334 331 285 290 169 143 268 302 255 317 262 222 230 240 248 225 227 204 223 220 219 216 213 235 250 242 241
173 171 169 169 168 163 148 121 6 356 358 350 337 329 332 337 317 341 332 328 322 7 301 349 52 58 314 296 298 284 298 217 228 220 236 236 219 213 218 215 216 225 226 213 229 241 248
176 179 180 171 162 163 149 154 343 4 353 340 332 331 333 345 290 343 327 314 276 243 291 339 353 332 323 314 312 303 273 209 222 244 234 241 197 225 224 201 222 237 239 236 224 240 244
178 178 175 170 163 169 173 179 11 354 333 330 331 331 348 324 338 330 323 288 278 283 340 331 334 322 313 333 323 276 218 189 207 215 231 223 265 199 208 181 190 217 208 199 223 218 230
171 177 172 168 171 180 184 188 359 332 325 328 338 360 344 353 339 334 302 278 303 341 333 330 322 314 318 336 314 338 215 184 213 209 194 179 186 167 199 210 189 213 191 201 196 203 198
182 184 175 172 172 178 183 168 338 323 328 332 337 136 286 349 349 325 289 341 343 331 328 326 321 317 319 325 313 307 243 195 200 226 180 180 116 149 206 185 194 206 220 160 265 228 165
181 183 177 176 178 185 179 179 311 311 328 335 321 247 58 342 338 305 300 329 347 342 328 328 326 317 318 316 324 332 173 192 193 249 115 203 125 192 190 186 204 206 214 211 244 225 221
184 176 176 177 180 176 161 190 287 314 328 337 266 246 61 348 317 294 322 347 334 332 327 329 295 293 306 306 313 318 305 150 238 210 221 277 154 175 199 210 200 195 211 228 190 276 281
188 178 190 185 189 189 175 196 243 319 327 330 284 267 47 351 257 284 328 331 326 345 334 312 316 316 301 302 297 295 0 7 323 280 203 246 273 185 202 208 233 197 176 199 210 189 279
187 181 185 187 179 182 178 206 247 309 20 316 313 4 125 296 327 340 345 329 343 339 357 328 306 290 296 306 318 357 337 2 10 12 14 7 239 180 161 220 164 227 182 181 97 139 195
183 186 179 190 182 180 184 207 209 245 27 303 357 256 163 323 158 324 349 353 354 345 344 306 284 309 318 322 347 329 339 16 17 16 23 328 240 194 211 190 180 163 186 156 195 244 190
189 193 183 193 187 188 184 197 194 181 93 297 36 234 38 273 249 324 321 313 341 4 330 356 331 354 342 360 342 338 352 358 10 16 19 9 88 40 27 135 152 143 147 166 150 13 308
197 189 185 196 182 189 187 202 201 174 150 263 141 278 197 266 288 292 164 308 327 345 351 352 345 341 335 7 347 319 334 359 12 335 32 341 49 113 77 96 106 98 89 102 69 53 332
200 176 187 193 179 187 190 196 187 188 183 178 264 92 296 286 290 279 25 313 317 329 321 339 333 338 334 344 323 304 301 299 284 311 346 336 352 26 98 105 127 82 28 60 93 52 9
186 179 188 193 190 195 203 201 203 203 203 202 183 274 256 279 265 351 325 307 305 317 306 318 337 344 327 319 303 230 258 274 29 42 18 336 356 325 112 209 121 79 34 15 88 54 23
181 183 191 192 197 197 205 213 210 213 216 231 165 245 276 279 313 283 336 328 304 288 296 318 340 337 323 317 314 252 187 203 96 53 31 10 318 37 10 70 118 113 34 17 342 64 26
192 191 198 198 190 205 209 222 198 206 212 204 206 221 281 292 53 360 313 291 337 345 315 336 340 329 332 310 301 312 31 341 25 113 60 30 344 327 233 152 174 35 356 350 311 106 8
186 191 195 195 196 199 203 194 206 214 203 202 188 202 248 269 287 332 354 329 319 331 306 324 344 336 341 332 318 353 15 334 0 11 5 12 24 16 46 27 100 358 318 313 257 28 9
189 194 198 199 197 195 199 201 222 215 203 204 231 205 204 263 288 303 302 294 320 308 323 352 306 25 348 351 359 13 332 360 304 31 2 7 330 35 322 334 93 353 14 36 330 22 30
191 193 199 197 195 195 217 192 208 205 205 209 245 230 226 256 301 301 284 276 274 282 305 305 322 320 7 330 31 326 315 342 311 301 30 54 14 7 21 59 52 32 52 40 24 49 29